Location: Newark
(45.6667°N, 4.7833°E)
Time: 18:42:27
(UTC+00:00)

X-37B - Visible Passes

Search period start: 23 September 2020 00:00
Search period end: 03 October 2020 00:00
Orbit: 386 x 387 km, 45.0° (Epoch: 18 September)

Date Brightness Start Highest point End Pass type
(mag) Time Alt. Az. Time Alt. Az. Time Alt. Az.
23 Sep 2.5 03:23:00 24° SE 03:23:00 24° SE 03:24:31 10° ESE visible
23 Sep 2.6 04:55:38 10° WSW 04:57:35 15° SSW 04:59:31 10° S visible
24 Sep 2.2 03:59:50 22° S 03:59:50 22° S 04:01:49 10° SSE visible
01 Oct 3.1 18:33:56 10° SSE 18:34:08 10° SSE 18:34:08 10° SSE visible
02 Oct 2.7 19:09:44 10° SW 19:10:54 18° SSW 19:10:54 18° SSW visible
